TimeCDT,TemperatureF,Dew PointF,Humidity,Sea Level PressureIn,VisibilityMPH,Wind Direction,Wind SpeedMPH,Gust SpeedMPH,PrecipitationIn,Events,Conditions,WindDirDegrees,DateUTC
12:53 AM,60.1,52.0,75,30.00,10.0,Calm,Calm,-,N/A,,Clear,0,2012-10-16 05:53:00
1:53 AM,57.0,51.1,81,29.98,10.0,SSE,5.8,-,N/A,,Clear,160,2012-10-16 06:53:00
2:53 AM,59.0,52.0,78,29.96,10.0,South,6.9,-,N/A,,Clear,170,2012-10-16 07:53:00
3:53 AM,57.9,52.0,81,29.94,10.0,South,4.6,-,N/A,,Clear,190,2012-10-16 08:53:00
4:53 AM,57.9,52.0,81,29.94,10.0,South,5.8,-,N/A,,Clear,180,2012-10-16 09:53:00
5:53 AM,57.9,52.0,81,29.93,10.0,SSE,5.8,-,N/A,,Clear,150,2012-10-16 10:53:00
7:53 AM,57.9,53.1,84,29.93,10.0,SSE,5.8,-,N/A,,Clear,150,2012-10-16 12:53:00
8:53 AM,60.1,54.0,80,29.94,10.0,South,5.8,-,N/A,,Clear,180,2012-10-16 13:53:00
9:53 AM,62.1,55.0,78,29.95,10.0,SSE,3.5,-,N/A,,Clear,160,2012-10-16 14:53:00
10:53 AM,64.9,54.0,68,29.94,10.0,South,8.1,-,N/A,,Clear,190,2012-10-16 15:53:00
11:53 AM,66.9,52.0,59,29.93,10.0,South,10.4,-,N/A,,Mostly Cloudy,190,2012-10-16 16:53:00
12:53 PM,66.9,53.1,61,29.91,10.0,South,10.4,-,N/A,,Mostly Cloudy,180,2012-10-16 17:53:00
1:53 PM,68.0,54.0,61,29.87,10.0,South,9.2,-,N/A,,Scattered Clouds,180,2012-10-16 18:53:00
2:53 PM,68.0,55.0,63,29.86,9.0,SSW,8.1,-,N/A,,Mostly Cloudy,200,2012-10-16 19:53:00
3:53 PM,68.0,55.9,65,29.82,10.0,South,12.7,-,0.00,,Partly Cloudy,170,2012-10-16 20:53:00
4:53 PM,66.9,57.0,70,29.81,10.0,South,8.1,-,N/A,,Overcast,190,2012-10-16 21:53:00
5:53 PM,66.9,57.9,73,29.79,10.0,South,12.7,-,N/A,,Scattered Clouds,180,2012-10-16 22:53:00
6:53 PM,64.0,57.9,80,29.78,10.0,South,11.5,-,N/A,,Clear,180,2012-10-16 23:53:00
7:53 PM,63.0,59.0,87,29.79,10.0,South,8.1,-,N/A,,Clear,190,2012-10-17 00:53:00
8:53 PM,63.0,59.0,87,29.77,10.0,South,12.7,-,N/A,,Clear,170,2012-10-17 01:53:00
9:53 PM,63.0,59.0,87,29.76,10.0,South,12.7,-,N/A,,Clear,180,2012-10-17 02:53:00
10:53 PM,62.1,59.0,90,29.75,10.0,South,11.5,-,N/A,,Clear,180,2012-10-17 03:53:00
11:53 PM,61.0,59.0,93,29.74,10.0,South,8.1,-,N/A,,Clear,180,2012-10-17 04:53:00